This demonstration page uses our WeatherBlox Daily Observations layout. Learn more.

Left ArrowRight Arrow

Hourly Observations for March 8, 2020

Temp ( °F °C ) Dew Point ( °F °C ) Humidity (%) Winds ( mph kmh ) Pressure ( in mb ) Visibility ( mi km ) Precip ( " mm )
12:56 am 00:56 Clear 53 11.5 28 -2.3 38 38 S 15 24 29.99 1016 10 16 0.00 0.00
1:56 am 01:56 Clear 51 10.8 28 -2.3 40 40 S 15 24 29.99 1016 10 16 0.00 0.00
3:56 am 03:56 Clear 51 10.4 28 -2 42 42 S 16 26 29.98 1015 10 16 0.00 0.00
4:56 am 04:56 Clear 50 9.9 29 -1.5 45 45 SSE 16 26 29.96 1014 10 16 0.00 0.00
5:56 am 05:56 Clear 49 9.6 30 -1.2 47 47 S 12 19 29.96 1014 10 16 0.00 0.00
7:56 am 07:56 Sunny 48 8.8 31 -0.5 52 52 SSE 12 19 29.95 1014 10 16 0.00 0.00
8:56 am 08:56 Sunny 50 10.2 31 -0.6 47 47 S 16 26 29.95 1014 10 16 0.00 0.00
9:56 am 09:56 Sunny 54 12.1 31 -0.4 42 42 S 13 20 29.95 1014 10 16 0.00 0.00
10:46 am 10:46 Sunny 57 14 32 0 39 39 S 20 31 29.92 1013 10 16 0.00 0.00
10:56 am 10:56 Sunny 58 14.2 33 0.4 39 39 S 15 24 29.92 1013 10 16 0.00 0.00
11:56 am 11:56 Sunny 62 16.7 35 1.5 36 36 S 17 28 29.90 1013 10 16 0.00 0.00
12:56 pm 12:56 Sunny 67 19.4 37 2.7 33 33 S 21 33 29.88 1012 10 16 0.00 0.00
1:56 pm 13:56 Sunny 69 20.8 37 3 31 31 S 21 33 29.85 1011 10 16 0.00 0.00
2:31 pm 14:31 Sunny 72 22 39 4 31 31 SSW 20 31 29.82 1010 10 16 0.00 0.00
2:56 pm 14:56 Sunny 72 22.1 40 4.2 31 31 S 24 39 29.80 1009 10 16 0.00 0.00
3:56 pm 15:56 Sunny 74 23.4 42 5.3 31 31 S 18 30 29.79 1009 10 16 0.00 0.00
4:56 pm 16:56 Sunny 74 23.4 42 5.8 32 32 S 20 31 29.80 1009 10 16 0.00 0.00
5:56 pm 17:56 Sunny 73 22.5 43 6.3 35 35 S 20 31 29.80 1009 10 16 0.00 0.00
6:56 pm 18:56 Sunny 68 19.9 44 6.6 42 42 SSW 20 31 29.82 1010 10 16 0.00 0.00
9:56 pm 21:56 Partly Cloudy 60 15.8 48 8.8 63 63 S 13 20 29.89 1012 10 16 0.00 0.00
10:56 pm 22:56 Clear 60 15.3 49 9.2 67 67 S 14 22 29.91 1013 10 16 0.00 0.00
11:56 pm 23:56 Cloudy 60 15.3 50 9.9 70 70 SSW 10 17 29.93 1013 10 16 0.00 0.00

Powered by AerisWeather